TimeMDT,TemperatureF,Dew PointF,Humidity,Sea Level PressureIn,VisibilityMPH,Wind Direction,Wind SpeedMPH,Gust SpeedMPH,PrecipitationIn,Events,Conditions,WindDirDegrees,DateUTC
12:53 AM,77.0,28.9,17,29.83,10.0,SSW,15.0,20.7,N/A,,Clear,210,2013-08-07 06:53:00
1:53 AM,71.1,28.9,21,29.84,10.0,SW,11.5,-,N/A,,Clear,230,2013-08-07 07:53:00
2:53 AM,66.9,28.9,24,29.85,10.0,SW,10.4,-,N/A,,Clear,220,2013-08-07 08:53:00
3:53 AM,64.9,28.9,26,29.85,10.0,SW,8.1,-,N/A,,Clear,220,2013-08-07 09:53:00
4:53 AM,57.9,30.0,35,29.88,10.0,SW,6.9,-,N/A,,Clear,220,2013-08-07 10:53:00
5:53 AM,55.9,30.0,37,29.89,10.0,SW,6.9,-,N/A,,Clear,220,2013-08-07 11:53:00
6:53 AM,55.0,34.0,45,29.91,10.0,South,4.6,-,N/A,,Clear,190,2013-08-07 12:53:00
7:53 AM,62.1,32.0,32,29.92,10.0,Calm,Calm,-,N/A,,Clear,0,2013-08-07 13:53:00
8:53 AM,69.1,30.0,23,29.92,10.0,West,5.8,-,N/A,,Clear,260,2013-08-07 14:53:00
9:53 AM,73.9,36.0,25,29.93,10.0,West,6.9,-,N/A,,Clear,260,2013-08-07 15:53:00
10:53 AM,77.0,37.0,24,29.91,10.0,WNW,4.6,-,N/A,,Clear,300,2013-08-07 16:53:00
11:53 AM,82.9,37.0,19,29.89,10.0,Variable,3.5,-,N/A,,Clear,0,2013-08-07 17:53:00
12:53 PM,87.1,37.0,17,29.87,10.0,NNW,8.1,-,N/A,,Clear,330,2013-08-07 18:53:00
1:53 PM,90.0,32.0,13,29.86,10.0,North,6.9,-,N/A,,Clear,360,2013-08-07 19:53:00
2:53 PM,90.0,19.0,7,29.85,10.0,NW,8.1,-,N/A,,Clear,310,2013-08-07 20:53:00
3:53 PM,91.9,24.1,9,29.82,10.0,ENE,6.9,-,N/A,,Partly Cloudy,60,2013-08-07 21:53:00
4:53 PM,93.0,19.0,7,29.81,10.0,North,8.1,-,N/A,,Partly Cloudy,10,2013-08-07 22:53:00
5:53 PM,91.9,21.9,8,29.80,10.0,Variable,5.8,-,N/A,,Partly Cloudy,0,2013-08-07 23:53:00
6:53 PM,91.0,23.0,8,29.80,10.0,Calm,Calm,-,N/A,,Partly Cloudy,0,2013-08-08 00:53:00
7:53 PM,88.0,28.0,12,29.78,10.0,Calm,Calm,-,N/A,,Partly Cloudy,0,2013-08-08 01:53:00
8:53 PM,81.0,28.9,15,29.78,10.0,East,4.6,-,N/A,,Clear,80,2013-08-08 02:53:00
9:53 PM,73.9,28.9,19,29.80,10.0,ESE,3.5,-,N/A,,Clear,110,2013-08-08 03:53:00
10:53 PM,66.9,30.0,25,29.82,10.0,NNW,5.8,-,N/A,,Clear,340,2013-08-08 04:53:00
11:53 PM,66.9,30.0,25,29.82,10.0,South,8.1,-,N/A,,Clear,190,2013-08-08 05:53:00